{"data":{"norad_id":63946,"intl_designator":"2025-098W","name":"STARLINK-34039","alt_names":[],"object_type":"PAYLOAD","status":"ACTIVE","operator":null,"country":"US","launch_date":"2025-05-13","launch_site_code":"AFWTR","launch_vehicle":null,"mission":null,"orbit_class":"UNKNOWN","rcs_meters":null,"size_class":null,"mass_kg":null,"dimensions":null,"purposes":["comms"],"wikipedia_slug":null,"has_3d_model":false,"image_url":null,"decayed_at":null,"tle_current":{"epoch":"2026-05-25T03:41:50.565408Z","epoch_age_seconds":51960,"freshness":"FRESH","line1":"1 63946U 25098W   26145.15405747  .00006488  00000+0  55080-3 0  9999","line2":"2 63946  70.0014  81.7623 0002691 265.4483  94.6369 14.98348447 58001","mean_motion":14.98348447,"eccentricity":0.0002691,"inclination_deg":70.0014,"raan_deg":81.7623,"arg_perigee_deg":265.4483,"mean_anomaly_deg":94.6369,"bstar":0.0005508,"rev_number":5800,"period_min":96.105815899044,"perigee_km":570.12856414781,"apogee_km":573.86912725996,"semimajor_km":6950.1358457039,"source":"CELESTRAK","updated_at":"2026-05-25T13:38:20.187648Z"}}}